TimeMDT,TemperatureF,Dew PointF,Humidity,Sea Level PressureIn,VisibilityMPH,Wind Direction,Wind SpeedMPH,Gust SpeedMPH,PrecipitationIn,Events,Conditions,WindDirDegrees,DateUTC
12:53 AM,71.1,34.0,26,30.01,10.0,Calm,Calm,-,N/A,,Clear,0,2013-06-28 06:53:00
1:53 AM,68.0,37.0,32,30.02,10.0,Calm,Calm,-,N/A,,Clear,0,2013-06-28 07:53:00
2:53 AM,63.0,32.0,31,30.04,10.0,SE,4.6,-,N/A,,Clear,140,2013-06-28 08:53:00
3:53 AM,61.0,33.1,35,30.04,10.0,ESE,3.5,-,N/A,,Clear,110,2013-06-28 09:53:00
4:53 AM,59.0,33.1,38,30.06,10.0,Calm,Calm,-,N/A,,Clear,0,2013-06-28 10:53:00
5:53 AM,57.9,34.0,41,30.08,10.0,Calm,Calm,-,N/A,,Clear,0,2013-06-28 11:53:00
6:53 AM,62.1,35.1,37,30.08,10.0,ENE,3.5,-,N/A,,Clear,70,2013-06-28 12:53:00
7:53 AM,68.0,36.0,31,30.09,10.0,Calm,Calm,-,N/A,,Clear,0,2013-06-28 13:53:00
8:53 AM,73.9,39.0,28,30.09,10.0,Calm,Calm,-,N/A,,Clear,0,2013-06-28 14:53:00
9:53 AM,79.0,37.0,22,30.07,10.0,Calm,Calm,-,N/A,,Clear,0,2013-06-28 15:53:00
10:53 AM,84.9,39.0,20,30.05,10.0,Calm,Calm,-,N/A,,Clear,0,2013-06-28 16:53:00
11:53 AM,90.0,37.9,16,30.03,10.0,Calm,Calm,-,N/A,,Clear,0,2013-06-28 17:53:00
12:53 PM,93.9,35.1,13,29.99,10.0,NNE,5.8,-,N/A,,Clear,20,2013-06-28 18:53:00
1:53 PM,96.1,32.0,10,29.96,10.0,Variable,3.5,-,N/A,,Clear,0,2013-06-28 19:53:00
2:53 PM,99.0,32.0,10,29.93,10.0,Variable,5.8,17.3,N/A,,Clear,0,2013-06-28 20:53:00
3:53 PM,97.0,32.0,10,29.91,10.0,WSW,5.8,-,N/A,,Clear,240,2013-06-28 21:53:00
4:53 PM,98.1,33.1,10,29.90,10.0,NNW,10.4,-,N/A,,Clear,330,2013-06-28 22:53:00
5:07 PM,98.6,32.0,10,30.15,10.0,Variable,3.5,-,N/A,Thunderstorm,Clear,0,2013-06-28 23:07:00
5:53 PM,93.9,37.9,14,29.91,10.0,East,16.1,-,N/A,,Clear,80,2013-06-28 23:53:00
6:53 PM,93.9,34.0,12,29.90,10.0,SE,5.8,-,N/A,,Clear,140,2013-06-29 00:53:00
7:53 PM,89.1,37.0,16,29.91,10.0,SSE,9.2,-,N/A,,Clear,150,2013-06-29 01:53:00
8:53 PM,82.9,39.0,21,29.91,10.0,SE,8.1,-,N/A,,Clear,140,2013-06-29 02:53:00
9:53 PM,78.1,39.9,25,29.92,10.0,ESE,13.8,-,N/A,,Clear,110,2013-06-29 03:53:00
10:53 PM,75.0,37.0,25,29.92,10.0,ESE,5.8,-,N/A,,Clear,120,2013-06-29 04:53:00
11:53 PM,73.0,35.1,25,29.93,10.0,ESE,9.2,-,N/A,,Clear,120,2013-06-29 05:53:00